CW9854 Weather Reports


time (UTC)temp
C
wind
direction
speed
KPH
gust
KPH
rain 1hr
cm
rain 24hr
cm
rain mn
cm
humidity
%
barometer
mb
20260906162003 20 11 1.6 4.8 0.00 0.00 0.00 80 1019.0
20260906161503 20 11 1.6 4.8 0.00 0.00 0.00 82 1019.0
20260906161003 20 12 1.6 8.0 0.00 0.00 0.00 81 1019.0
20260906160503 21 18 1.6 12.9 0.00 0.00 0.00 81 1018.9
20260906160003 21 30 1.6 12.9 0.00 0.00 0.00 81 1019.0
20260906155503 20 46 1.6 4.8 0.00 0.00 0.00 82 1019.1
20260906155217 20 51 1.6 4.8 0.00 0.00 0.00 81 1019.1
20260906154503 20 39 3.2 6.4 0.00 0.00 0.00 84 1019.0
20260906154003 20 40 1.6 6.4 0.00 0.00 0.00 83 1019.1
20260906153503 20 38 1.6 8.0 0.00 0.00 0.00 84 1019.3
20260906153217 20 29 1.6 8.0 0.00 0.00 0.00 84 1019.1
20260906152503 20 26 1.6 6.4 0.00 0.00 0.00 85 1019.2
20260906152003 20 50 1.6 9.7 0.00 0.00 0.00 85 1019.2
20260906151504 20 57 1.6 9.7 0.00 0.00 0.00 86 1019.1
20260906151003 20 40 1.6 8.0 0.00 0.00 0.00 86 1018.9
20260906150508 19 33 1.6 8.0 0.00 0.00 0.00 85 1018.8
20260906150003 19 35 1.6 4.8 0.00 0.00 0.00 88 1018.7
20260906145508 19 40 1.6 6.4 0.00 0.00 0.00 88 1018.9
20260906145003 18 42 1.6 6.4 0.00 0.00 0.00 90 1018.9
20260906144503 18 35 1.6 6.4 0.00 0.00 0.00 89 1018.8
20260906144217 18 33 1.6 6.4 0.00 0.00 0.00 90 1018.7
20260906143503 18 34 1.6 4.8 0.00 0.00 0.00 90 1018.6
20260906143003 18 16 1.6 3.2 0.00 0.00 0.00 90 1018.6
20260906142503 18 15 0.0 3.2 0.00 0.00 0.00 90 1018.7
20260906142003 18 53 0.0 3.2 0.00 0.00 0.00 91 1018.6
20260906141503 18 22 0.0 3.2 0.00 0.00 0.00 91 1018.8
20260906141003 18 21 1.6 3.2 0.00 0.00 0.00 91 1018.8
20260906140503 18 28 1.6 3.2 0.00 0.00 0.00 92 1018.7
20260906140216 18 29 1.6 3.2 0.00 0.00 0.00 92 1018.6
20260906135503 17 23 1.6 3.2 0.00 0.00 0.00 93 1018.6
20260906135003 17 20 1.6 4.8 0.00 0.00 0.00 93 1018.5
20260906134503 17 19 0.0 4.8 0.00 0.00 0.00 94 1018.5
20260906134003 17 30 1.6 4.8 0.00 0.00 0.00 94 1018.5
20260906133503 17 26 1.6 4.8 0.00 0.00 0.00 94 1018.5
20260906133008 17 27 1.6 4.8 0.00 0.00 0.00 95 1018.5
20260906132504 17 32 1.6 4.8 0.00 0.00 0.00 96 1018.4
20260906132218 17 28 0.0 4.8 0.00 0.00 0.00 96 1018.4
20260906131503 17 30 0.0 4.8 0.00 0.00 0.00 96 1018.4
20260906131003 17 34 1.6 4.8 0.00 0.00 0.00 97 1018.4
20260906130503 17 33 1.6 4.8 0.00 0.00 0.00 97 1018.4
20260906130003 17 36 0.0 3.2 0.00 0.00 0.00 97 1018.4
20260906125503 17 31 1.6 6.4 0.00 0.00 0.00 97 1018.3
20260906125218 17 25 1.6 6.4 0.00 0.00 0.00 97 1018.2
20260906124503 16 18 0.0 4.8 0.00 0.00 0.00 97 1018.2
20260906124218 16 19 0.0 4.8 0.00 0.00 0.00 97 1018.1
20260906123503 16 17 0.0 4.8 0.00 0.00 0.00 97 1018.0
20260906123003 15 0 0.0 0.0 0.00 0.00 0.00 97 1018.1
20260906122503 15 0 0.0 0.0 0.00 0.00 0.00 97 1018.0
20260906122003 15 0 0.0 0.0 0.00 0.00 0.00 96 1018.0
20260906121503 15 0 0.0 0.0 0.00 0.00 0.00 96 1018.0
20260906121003 14 0 0.0 0.0 0.00 0.00 0.00 96 1018.0
20260906120508 14 0 0.0 0.0 0.00 0.00 0.00 96 1017.9
20260906120003 14 0 0.0 0.0 0.00 0.00 0.00 96 1018.0
20260906115503 14 0 0.0 0.0 0.00 0.00 0.00 95 1018.0
20260906115003 14 0 0.0 0.0 0.00 0.00 0.00 95 1017.9
20260906114717 14 0 0.0 0.0 0.00 0.00 0.00 95 1017.8
20260906114003 13 0 0.0 0.0 0.00 0.00 0.00 95 1017.7
20260906113717 13 0 0.0 0.0 0.00 0.00 0.00 95 1017.7
20260906113003 13 0 0.0 0.0 0.00 0.00 0.00 95 1017.7
20260906112503 13 0 0.0 0.0 0.00 0.00 0.00 95 1017.7
20260906112003 13 0 0.0 0.0 0.00 0.00 0.00 94 1017.6
20260906111503 13 0 0.0 0.0 0.00 0.00 0.00 94 1017.6
20260906111003 13 0 0.0 0.0 0.00 0.00 0.00 94 1017.4
20260906110504 13 0 0.0 0.0 0.00 0.00 0.00 94 1017.4
20260906110003 13 0 0.0 0.0 0.00 0.00 0.00 94 1017.4
20260906105503 13 0 0.0 0.0 0.00 0.00 0.00 94 1017.2
20260906105003 13 0 0.0 0.0 0.00 0.00 0.00 94 1017.2
20260906104503 13 0 0.0 0.0 0.00 0.00 0.00 94 1017.2
20260906104008 14 0 0.0 0.0 0.00 0.00 0.00 94 1017.1
20260906103503 14 0 0.0 0.0 0.00 0.00 0.00 94 1017.0
20260906103003 14 0 0.0 0.0 0.00 0.00 0.00 94 1017.0
20260906102503 14 0 0.0 0.0 0.00 0.00 0.00 94 1017.0
20260906102003 14 0 0.0 0.0 0.00 0.00 0.00 94 1017.0
20260906101503 14 0 0.0 0.0 0.00 0.00 0.00 94 1017.0
20260906101003 14 0 0.0 0.0 0.00 0.00 0.00 94 1016.9
20260906100503 14 0 0.0 0.0 0.00 0.00 0.00 94 1016.9
20260906100003 14 0 0.0 0.0 0.00 0.00 0.00 94 1016.9
20260906095503 14 0 0.0 0.0 0.00 0.00 0.00 94 1016.9
20260906095003 14 0 0.0 0.0 0.00 0.00 0.00 94 1016.9
20260906094503 14 0 0.0 0.0 0.00 0.00 0.00 94 1016.9
20260906094003 14 0 0.0 0.0 0.00 0.00 0.00 94 1016.9
20260906093503 15 0 0.0 0.0 0.00 0.00 0.00 94 1016.7
20260906093003 15 0 0.0 0.0 0.00 0.00 0.00 94 1016.6
20260906092503 15 0 0.0 0.0 0.00 0.00 0.00 94 1016.6
20260906092217 15 0 0.0 0.0 0.00 0.00 0.00 94 1016.6
20260906091504 15 0 0.0 0.0 0.00 0.00 0.00 94 1016.4
20260906091217 15 0 0.0 0.0 0.00 0.00 0.00 94 1016.3
20260906090503 15 0 0.0 0.0 0.00 0.00 0.00 94 1016.3
20260906090003 15 0 0.0 0.0 0.00 0.00 0.00 94 1016.4
20260906085503 15 0 0.0 0.0 0.00 0.00 0.00 94 1016.2
20260906085003 15 0 0.0 0.0 0.00 0.00 0.00 94 1016.1
20260906084503 15 0 0.0 0.0 0.00 0.00 0.00 94 1016.2
20260906084003 15 0 0.0 0.0 0.00 0.00 0.00 94 1016.1
20260906083503 15 0 0.0 0.0 0.00 0.00 0.00 94 1016.0
20260906083003 15 0 0.0 0.0 0.00 0.00 0.00 94 1016.0
20260906082503 15 0 0.0 0.0 0.00 0.00 0.00 94 1015.9
20260906082003 15 0 0.0 0.0 0.00 0.00 0.00 93 1015.8
20260906081718 15 0 0.0 0.0 0.00 0.00 0.00 93 1015.8
20260906081003 16 0 0.0 0.0 0.00 0.00 0.00 94 1015.7
20260906080503 16 0 0.0 0.0 0.00 0.00 0.00 93 1015.7
20260906080003 16 0 0.0 0.0 0.00 0.00 0.00 93 1015.8
20260906075717 16 0 0.0 0.0 0.00 0.00 0.00 93 1015.7
20260906075008 16 0 0.0 0.0 0.00 0.00 0.00 93 1015.8
20260906074503 16 0 0.0 0.0 0.00 0.00 0.00 93 1015.7
20260906074003 16 0 0.0 0.0 0.00 0.00 0.00 93 1015.7
20260906073503 16 0 0.0 0.0 0.00 0.00 0.00 93 1015.6
20260906073005 16 0 0.0 0.0 0.00 0.00 0.00 93 1015.7
20260906072503 16 0 0.0 0.0 0.00 0.00 0.00 93 1015.6
20260906072003 16 0 0.0 0.0 0.00 0.00 0.00 93 1015.5
20260906071503 16 0 0.0 0.0 0.00 0.00 0.00 93 1015.5
20260906071218 16 0 0.0 0.0 0.00 0.00 0.00 93 1015.6
20260906070503 16 0 0.0 0.0 0.00 0.00 0.00 94 1015.6
20260906070003 16 0 0.0 0.0 0.00 0.00 0.00 94 1015.6
20260906065503 16 0 0.0 0.0 0.00 0.00 0.00 93 1015.8
20260906065003 16 0 0.0 0.0 0.00 0.00 0.00 93 1015.8
20260906064503 16 0 0.0 0.0 0.00 0.00 0.00 93 1015.8
20260906064003 16 0 0.0 0.0 0.00 0.00 0.00 93 1015.8
20260906063503 16 0 0.0 0.0 0.00 0.00 0.00 94 1015.8
20260906063003 16 0 0.0 0.0 0.00 0.00 0.00 94 1015.7
20260906062505 16 0 0.0 0.0 0.00 0.00 0.00 93 1015.8
20260906062003 17 0 0.0 0.0 0.00 0.00 0.00 94 1015.9
20260906061503 17 0 0.0 0.0 0.00 0.00 0.00 94 1015.8
20260906061003 17 0 0.0 0.0 0.00 0.00 0.00 94 1015.7
20260906060503 16 0 0.0 0.0 0.00 0.00 0.00 94 1015.7
20260906060218 16 0 0.0 0.0 0.00 0.00 0.00 94 1015.7
20260906055503 16 0 0.0 0.0 0.00 0.00 0.00 93 1015.7
20260906055003 16 0 0.0 0.0 0.00 0.00 0.00 93 1015.7
20260906054716 16 0 0.0 0.0 0.00 0.00 0.00 93 1015.7
20260906054217 16 0 0.0 0.0 0.00 0.00 0.00 93 1015.7
20260906053503 16 0 0.0 0.0 0.00 0.00 0.00 93 1015.7
20260906053217 16 0 0.0 0.0 0.00 0.00 0.00 93 1015.7
20260906052503 17 0 0.0 0.0 0.00 0.00 0.00 93 1015.7
20260906052003 17 0 0.0 0.0 0.00 0.00 0.00 93 1015.7
20260906051503 17 0 0.0 0.0 0.00 0.00 0.00 93 1015.7
20260906051003 17 0 0.0 0.0 0.00 0.00 0.00 93 1015.7
20260906050503 17 0 0.0 0.0 0.00 0.00 0.00 93 1015.7
20260906050003 17 0 0.0 0.0 0.00 0.00 0.00 93 1015.7
20260906045503 17 0 0.0 0.0 0.00 0.00 0.00 93 1015.7
20260906045003 17 0 0.0 0.0 0.00 0.00 0.00 93 1015.6
20260906044503 17 0 0.0 0.0 0.00 0.00 0.00 93 1015.6
20260906044003 17 0 0.0 0.0 0.00 0.00 0.00 93 1015.7
20260906043503 17 0 0.0 0.0 0.00 0.00 0.00 93 1015.6
20260906043217 17 0 0.0 0.0 0.00 0.00 0.00 93 1015.6
20260906042503 17 0 0.0 0.0 0.00 0.00 0.00 93 1015.6
20260906042003 17 0 0.0 0.0 0.00 0.00 0.00 93 1015.6
20260906041503 17 0 0.0 0.0 0.00 0.00 0.00 93 1015.5
20260906041003 17 0 0.0 0.0 0.00 0.00 0.00 93 1015.4
20260906040503 17 0 0.0 0.0 0.00 0.00 0.00 93 1015.6
20260906040004 17 0 0.0 0.0 0.00 0.00 0.00 93 1015.5
20260906035503 17 0 0.0 0.0 0.00 0.00 0.00 92 1015.4
20260906035217 17 0 0.0 0.0 0.00 0.00 0.00 92 1015.4
20260906034718 17 0 0.0 0.0 0.00 0.00 0.00 93 1015.4
20260906034003 17 0 0.0 0.0 0.00 0.00 0.00 92 1015.4
20260906033503 17 0 0.0 0.0 0.00 0.00 0.00 92 1015.4
20260906033003 17 0 0.0 0.0 0.00 0.00 0.00 92 1015.3
20260906032721 17 0 0.0 0.0 0.00 0.00 0.00 92 1015.3
20260906032003 17 0 0.0 0.0 0.00 0.00 0.00 92 1015.4
20260906031722 17 0 0.0 0.0 0.00 0.00 0.00 92 1015.4
20260906031003 17 0 0.0 0.0 0.00 0.00 0.00 92 1015.2
20260906030503 17 0 0.0 0.0 0.00 0.00 0.00 92 1015.1
20260906030218 17 0 0.0 0.0 0.00 0.00 0.00 92 1015.1
20260906025503 17 0 0.0 0.0 0.00 0.00 0.00 92 1015.1
20260906025003 17 0 0.0 0.0 0.00 0.00 0.00 92 1015.3
20260906024503 17 0 0.0 0.0 0.00 0.00 0.00 92 1015.3
20260906024003 17 0 0.0 0.0 0.00 0.00 0.00 92 1015.2
20260906023717 17 0 0.0 0.0 0.00 0.00 0.00 92 1015.2
20260906023218 17 0 0.0 0.0 0.00 0.00 0.00 92 1015.2
20260906022503 17 0 0.0 0.0 0.00 0.00 0.00 92 1015.2
20260906022003 17 0 0.0 0.0 0.00 0.00 0.00 92 1015.3
20260906021503 17 0 0.0 0.0 0.00 0.00 0.00 92 1015.2
20260906021003 17 0 0.0 0.0 0.00 0.00 0.00 92 1015.2
20260906020503 17 0 0.0 0.0 0.00 0.00 0.00 92 1015.1
20260906020003 17 0 0.0 0.0 0.00 0.00 0.00 92 1015.1
20260906015503 17 0 0.0 0.0 0.00 0.00 0.00 92 1015.1
20260906015008 17 0 0.0 0.0 0.00 0.00 0.00 92 1015.1
20260906014503 17 0 0.0 0.0 0.00 0.00 0.00 91 1015.1
20260906014003 17 0 0.0 0.0 0.00 0.00 0.00 91 1015.1
20260906013503 17 0 0.0 0.0 0.00 0.00 0.00 91 1015.0
20260906013218 17 0 0.0 0.0 0.00 0.00 0.00 91 1014.9
20260906012503 17 0 0.0 0.0 0.00 0.00 0.00 90 1014.9
20260906012003 17 0 0.0 0.0 0.00 0.00 0.00 90 1014.9
20260906011717 17 0 0.0 0.0 0.00 0.00 0.00 90 1014.9
20260906011003 17 0 0.0 0.0 0.00 0.00 0.00 90 1014.9
20260906010504 17 0 0.0 0.0 0.00 0.00 0.00 89 1014.7
20260906010003 17 0 0.0 0.0 0.00 0.00 0.00 89 1014.6
20260906005717 17 0 0.0 0.0 0.00 0.00 0.00 89 1014.6
20260906005003 17 0 0.0 0.0 0.00 0.00 0.00 89 1014.6
20260906004503 17 0 0.0 0.0 0.00 0.00 0.00 88 1014.6
20260906004218 17 0 0.0 0.0 0.00 0.00 0.00 88 1014.6
20260906003503 17 0 0.0 0.0 0.00 0.00 0.00 89 1014.6
20260906003217 18 0 0.0 0.0 0.00 0.00 0.00 88 1014.6
20260906002508 18 0 0.0 0.0 0.00 0.00 0.00 88 1014.6
20260906002003 18 0 0.0 0.0 0.00 0.00 0.00 88 1014.6
20260906001508 18 0 0.0 0.0 0.00 0.00 0.00 88 1014.6
20260906001003 18 0 0.0 0.0 0.00 0.00 0.00 87 1014.5
20260906000503 18 0 0.0 0.0 0.00 0.00 0.00 86 1014.3
20260906000219 18 0 0.0 0.0 0.00 0.00 0.00 86 1014.3
20260905235503 18 0 0.0 0.0 0.00 0.00 0.00 84 1014.3
20260905235003 18 0 0.0 0.0 0.00 0.00 0.00 83 1014.3
20260905234503 19 0 0.0 0.0 0.00 0.00 0.00 82 1014.4
20260905234003 19 0 0.0 0.0 0.00 0.00 0.00 82 1014.5
20260905233503 19 0 0.0 0.0 0.00 0.00 0.00 81 1014.6
20260905233003 20 0 0.0 0.0 0.00 0.00 0.00 82 1014.7
20260905232503 20 0 0.0 0.0 0.00 0.00 0.00 82 1014.6
20260905232003 20 0 0.0 0.0 0.00 0.00 0.00 80 1014.6
20260905231504 20 0 0.0 0.0 0.00 0.00 0.00 79 1014.5
20260905231003 20 0 0.0 0.0 0.00 0.00 0.00 79 1014.6
20260905230505 20 0 0.0 0.0 0.00 0.00 0.00 77 1014.6
20260905230217 20 0 0.0 0.0 0.00 0.00 0.00 78 1014.6
20260905225503 20 0 0.0 0.0 0.00 0.00 0.00 77 1014.5
20260905225003 20 0 0.0 0.0 0.00 0.00 0.00 78 1014.5
20260905224503 20 0 0.0 0.0 0.00 0.00 0.00 77 1014.4
20260905224003 20 0 0.0 0.0 0.00 0.00 0.00 77 1014.4
20260905223503 20 0 0.0 0.0 0.00 0.00 0.00 76 1014.4
20260905223003 21 32 0.0 1.6 0.00 0.00 0.00 76 1014.4
20260905222503 21 32 0.0 1.6 0.00 0.00 0.00 75 1014.4
20260905222003 21 32 0.0 1.6 0.00 0.00 0.00 75 1014.4
20260905221503 21 32 0.0 1.6 0.00 0.00 0.00 76 1014.5
20260905221003 21 0 0.0 0.0 0.00 0.00 0.00 74 1014.5
20260905220503 21 32 0.0 1.6 0.00 0.00 0.00 76 1014.4
20260905220003 21 32 0.0 1.6 0.00 0.00 0.00 71 1014.4
20260905215503 21 32 0.0 1.6 0.00 0.00 0.00 71 1014.3
20260905215003 21 34 0.0 3.2 0.00 0.00 0.00 73 1014.3
20260905214504 21 34 0.0 3.2 0.00 0.00 0.00 72 1014.2
20260905214003 21 0 0.0 0.0 0.00 0.00 0.00 72 1014.2
20260905213503 21 14 0.0 1.6 0.00 0.00 0.00 70 1014.2
20260905213003 21 21 0.0 1.6 0.00 0.00 0.00 70 1014.2
20260905212508 21 24 0.0 3.2 0.00 0.00 0.00 71 1014.1
20260905212003 22 25 0.0 3.2 0.00 0.00 0.00 71 1014.1
20260905211503 22 33 0.0 1.6 0.00 0.00 0.00 74 1014.1
20260905211003 22 37 1.6 3.2 0.00 0.00 0.00 72 1014.2
20260905210504 22 40 0.0 3.2 0.00 0.00 0.00 70 1014.2
20260905210003 22 39 0.0 3.2 0.00 0.00 0.00 70 1014.1
20260905205503 22 38 0.0 3.2 0.00 0.00 0.00 69 1014.1
20260905205003 22 29 0.0 3.2 0.00 0.00 0.00 70 1014.1
20260905204503 22 23 1.6 4.8 0.00 0.00 0.00 69 1014.1
20260905204003 23 41 1.6 4.8 0.00 0.00 0.00 67 1014.1
20260905203503 23 48 1.6 4.8 0.00 0.00 0.00 68 1014.0
20260905203003 23 53 0.0 4.8 0.00 0.00 0.00 68 1014.1
20260905202503 23 53 0.0 4.8 0.00 0.00 0.00 67 1014.1
20260905202003 23 39 1.6 4.8 0.00 0.00 0.00 69 1014.0
20260905201717 23 38 1.6 4.8 0.00 0.00 0.00 67 1014.0
20260905201003 23 52 0.0 3.2 0.00 0.00 0.00 68 1014.1
20260905200503 23 74 0.0 3.2 0.00 0.00 0.00 69 1014.2
20260905200008 23 74 1.6 4.8 0.00 0.00 0.00 69 1014.2
20260905195503 23 28 1.6 4.8 0.00 0.00 0.00 68 1014.2
20260905195004 23 15 1.6 4.8 0.00 0.00 0.00 70 1014.2
20260905194503 23 32 1.6 6.4 0.00 0.00 0.00 70 1014.1
20260905194219 23 27 1.6 6.4 0.00 0.00 0.00 71 1014.1
20260905193503 23 331 1.6 3.2 0.00 0.00 0.00 70 1014.1
20260905193003 23 342 1.6 3.2 0.00 0.00 0.00 70 1014.2
20260905192503 23 347 0.0 3.2 0.00 0.00 0.00 72 1014.2
20260905192003 23 323 0.0 3.2 0.00 0.00 0.00 71 1014.2
20260905191716 23 291 0.0 3.2 0.00 0.00 0.00 71 1014.2
20260905191003 23 273 1.6 3.2 0.00 0.00 0.00 71 1014.4
20260905190503 23 212 1.6 3.2 0.00 0.00 0.00 65 1014.3
20260905190218 23 199 0.0 3.2 0.00 0.00 0.00 69 1014.3
20260905185503 22 200 0.0 3.2 0.00 0.00 0.00 70 1014.3
20260905185003 22 187 1.6 3.2 0.00 0.00 0.00 69 1014.4
20260905184503 22 67 1.6 4.8 0.00 0.00 0.00 69 1014.3
20260905184003 22 45 1.6 4.8 0.00 0.00 0.00 65 1014.3
20260905183503 23 31 1.6 3.2 0.00 0.00 0.00 70 1014.3
20260905183217 23 38 1.6 3.2 0.00 0.00 0.00 71 1014.3
20260905182503 22 50 1.6 3.2 0.00 0.00 0.00 68 1014.3
20260905182003 22 56 0.0 3.2 0.00 0.00 0.00 70 1014.3
20260905181503 22 63 0.0 3.2 0.00 0.00 0.00 76 1014.2
20260905181003 22 63 1.6 3.2 0.00 0.00 0.00 72 1014.2
20260905180505 22 46 1.6 4.8 0.00 0.00 0.00 73 1014.2
20260905180003 22 41 1.6 4.8 0.00 0.00 0.00 68 1014.2
20260905175503 22 48 0.0 1.6 0.00 0.00 0.00 77 1014.1
20260905175003 22 48 0.0 1.6 0.00 0.00 0.00 75 1014.1
20260905174503 22 41 0.0 4.8 0.00 0.00 0.00 73 1014.1
20260905174003 22 41 0.0 4.8 0.00 0.00 0.00 70 1014.1
20260905173503 22 48 0.0 1.6 0.00 0.00 0.00 76 1014.1
20260905173003 22 48 0.0 3.2 0.00 0.00 0.00 73 1014.1
20260905172503 22 48 0.0 3.2 0.00 0.00 0.00 74 1014.2
20260905172003 21 58 0.0 4.8 0.00 0.00 0.00 78 1014.2
20260905171503 21 50 1.6 4.8 0.00 0.00 0.00 72 1014.2
20260905171217 22 41 0.0 3.2 0.00 0.00 0.00 72 1014.2
20260905170718 21 5 0.0 3.2 0.00 0.00 0.00 75 1014.2
20260905170003 21 31 0.0 1.6 0.00 0.00 0.00 75 1014.1
20260905165503 21 0 0.0 0.0 0.00 0.00 0.00 78 1014.1
20260905165223 21 0 0.0 0.0 0.00 0.00 0.00 79 1014.1
20260905164503 21 0 0.0 0.0 0.00 0.00 0.00 74 1014.2
20260905164217 21 0 0.0 0.0 0.00 0.00 0.00 77 1014.1
20260905163503 21 21 0.0 1.6 0.00 0.00 0.00 76 1014.2
20260905163003 21 21 0.0 1.6 0.00 0.00 0.00 77 1014.2